Reaktor Hello World
1 43743U 18096AA 21301.22415799 .00005675 00000-0 19971-3 0 9994
2 43743 97.3758 17.7102 0017385 160.8098 199.3801 15.29588265162423
MinXSS-2
1 43758U 18099A 21301.19263314 .00001237 00000-0 11445-3 0 9991
2 43758 97.6538 9.5574 0014503 328.2721 31.7625 14.96258134158365
AO-95
1 43770U 18099N 21301.13889168 .00001433 00000-0 13433-3 0 9997
2 43770 97.6520 8.3142 0013681 339.7317 20.3359 14.95498250158285
RANGE-B
1 43772U 18099Q 21301.13865004 .00001778 00000-0 16400-3 0 9991
2 43772 97.6613 9.5243 0012942 325.6889 34.3495 14.95850885158295
RANGE-A
1 43773U 18099R 21301.42339306 .00000559 00000-0 55729-4 0 9999
2 43773 97.6452 7.7763 0012537 325.8059 34.2354 14.95346139158313
MOVE-II
1 43780U 18099Y 21301.44396174 .00001285 00000-0 11886-3 0 9997
2 43780 97.6542 9.3131 0012630 334.2509 25.8082 14.96207003158351
SNUSat 2
1 43782U 18099AA 21301.41830670 .00001175 00000-0 11051-3 0 9992
2 43782 97.6522 8.9745 0011616 324.9162 35.1293 14.95729655158349
SnugLite
1 43784U 18099AC 21301.14737433 .00001336 00000-0 12445-3 0 9994
2 43784 97.6485 8.4024 0014074 332.8995 27.1490 14.95868544158326
ITASat 1
1 43786U 18099AE 21301.43430936 .00000450 00000-0 45428-4 0 9990
2 43786 97.6543 9.3733 0014351 331.0003 29.0419 14.95770656158361
EAGLET 1
1 43790U 18099AJ 21301.43818757 .00000175 00000-0 20627-4 0 9994
2 43790 97.6532 9.8412 0012821 335.1493 24.9109 14.96100083158093
ESEO
1 43792U 18099AL 21301.17820402 .00000007 00000-0 57676-5 0 9996
2 43792 97.6492 9.0677 0012584 333.0710 26.9857 14.95816273158108
CSIM
1 43793U 18099AM 21301.18643291 .00001542 00000-0 13932-3 0 9997
2 43793 97.6532 9.7137 0011951 326.7113 33.3356 14.96872438158129
Astrocast 0.1
1 43798U 18099AS 21301.43345966 .00000917 00000-0 85956-4 0 9999
2 43798 97.6542 10.0921 0011224 314.1422 45.8875 14.96377980158405
JO-97
1 43803U 18099AX 21301.44175472 .00000691 00000-0 66551-4 0 9999
2 43803 97.6502 9.1200 0014274 330.0701 29.9703 14.96051873158371
Suomi 100
1 43804U 18099AY 21301.18263680 .00000833 00000-0 79249-4 0 9996
2 43804 97.6496 8.8216 0014310 330.9679 29.0745 14.96011762158348
Al Farabi 2
1 43805U 18099AZ 21301.89805580 .00001384 00000-0 12732-3 0 9991
2 43805 97.6529 9.8157 0014253 329.6551 30.3838 14.96289222158460
CHOMPTT
1 43855U 18104G 21301.33253049 .00004238 00000-0 16989-3 0 9998
2 43855 85.0403 205.4093 0017860 23.9613 336.2457 15.24550030159332
ISAT
1 43879U 18111D 21301.83645167 .00001712 00000-0 15415-3 0 9990
2 43879 97.6733 206.6674 0013793 23.8542 336.3318 14.96847702153000
UWE-4
1 43880U 18111E 21301.20226426 .00001248 00000-0 11312-3 0 9992
2 43880 97.6759 206.6020 0012721 24.8647 335.3186 14.97063248154944
Sparrow
1 43881U 18111F 21301.30136806 .00001769 00000-0 15799-3 0 9997
2 43881 97.6781 206.8590 0013216 24.0725 336.1112 14.97137297154969
Lume 1
1 43908U 18111AJ 21301.33253063 .00004158 00000-0 15932-3 0 9999
2 43908 97.2148 191.7066 0020046 174.7148 185.4307 15.26879425157944
FO-98
1 43933U 19003B 21301.35835902 .00033092 00000-0 10785-2 0 9997
2 43933 97.1710 338.0646 0011967 278.3431 81.6454 15.31680823154411
FO-99
1 43937U 19003F 21301.36296312 .00004873 00000-0 18822-3 0 9994
2 43937 97.1627 339.1731 0020890 259.8998 99.9884 15.26510974154531
MYSat 1
1 44045U 18092F 21301.36934476 .00012320 00000-0 29392-3 0 9992
2 44045 51.6353 136.7651 0009004 330.5669 29.4809 15.41910254151951
AstroCast 0.2
1 44083U 19018F 21301.43344803 .00005931 00000-0 25302-3 0 9997
2 44083 97.3574 359.9585 0011610 219.3568 140.6826 15.23234131143137
AISTechSat 3
1 44103U 19018AB 21301.79965823 .00002814 00000-0 11689-3 0 9990
2 44103 97.3437 0.7567 0011625 229.3718 224.4507 15.24586771143322
AISat 1
1 44104U 19018AC 21301.23399908 .00003680 00000-0 11418-3 0 9997
2 44104 97.4158 18.8297 0054427 241.6892 117.8853 15.32610897144002
Prox-1
1 44339U 19036A 21301.19823634 .00001805 00000-0 37183-3 0 9994
2 44339 23.9994 218.0124 0011439 191.4199 168.6034 14.53854901124501
Oculus-ASR
1 44348U 19036K 21301.41569514 .00035150 00000-0 45313-3 0 9997
2 44348 28.5143 326.4215 0311710 270.4723 86.0165 15.16881737129082
Armadillo
1 44352U 19036P 21301.33288707 .00067127 00000-0 76326-3 0 9992
2 44352 28.5282 294.0212 0269695 320.9852 37.1570 15.27701457129355
NO-104
1 44354U 19036R 21301.43437891 .00039184 00000-0 49150-3 0 9992
2 44354 28.5302 317.4605 0305713 282.6484 74.0097 15.18651591129170
NO-103
1 44355U 19036S 21301.24388196 .00099490 -38574-5 89075-3 0 9994
2 44355 28.5238 248.1152 0218682 35.4461 326.0461 15.42005020129850
CP9
1 44360U 19036X 21298.30413016 .01594744 18532-2 12518-2 0 9990
2 44360 28.4843 154.2459 0035176 200.8010 159.1175 16.12399308130387
Move-IIb
1 44398U 19038N 21301.55405792 .00003744 00000-0 20625-3 0 9999
2 44398 97.5984 265.1345 0022651 207.2759 152.7285 15.14422966127905
SONATE
1 44400U 19038Q 21301.60581498 .00001625 00000-0 95611-4 0 9991
2 44400 97.6063 264.9307 0023592 208.5119 151.4817 15.12877677127865
BeeSat 9
1 44412U 19038AC 21301.35852952 .00003386 00000-0 19027-3 0 9994
2 44412 97.6054 265.0717 0020785 212.4466 147.5489 15.13821597127553
JAISAT-1
1 44419U 19038F 21301.41790583 .00003301 00000-0 18319-3 0 9999
2 44419 97.6058 265.7839 0019755 209.6919 150.3193 15.14306541127914
LightSail-2
1 44420U 19036AC 21301.35078760 .00014813 00000-0 28774-2 0 9993
2 44420 24.0038 187.4218 0020234 221.8272 138.0674 14.61421640122945
Taurus 1
1 44530U 19059C 21301.77701071 .00000770 00000-0 22744-3 0 9993
2 44530 98.5511 33.2612 0015067 101.3254 258.9633 14.46254197112350
Duchifat 3
1 44854U 19089C 21301.56300206 .00001284 00000-0 10831-3 0 9992
2 44854 36.9675 33.3331 0006648 136.7738 223.3571 14.99728997103099
OPS-SAT
1 44878U 19092F 21301.25873874 .00004415 00000-0 22622-3 0 9994
2 44878 97.4772 122.8906 0015018 70.7377 289.5479 15.17004858102964
TO-108
1 44881U 19093C 21301.79417403 .00000178 00000-0 29398-4 0 9990
2 44881 97.9153 19.1099 0014085 215.2499 144.7786 14.81498242100472
FloripaSat 1
1 44885U 19093G 21301.80314216 .00000591 00000-0 80370-4 0 9990
2 44885 97.9171 19.9124 0013658 223.0911 136.9239 14.82431006100522
RS-44
1 44909U 19096E 21301.30291111 .00000014 00000-0 43519-5 0 9998
2 44909 82.5263 24.5334 0218181 142.3353 219.3255 12.79711278 85811
HO-107
1 45119U 19071J 21301.43974618 .00008477 00000-0 24000-3 0 9992
2 45119 51.6396 111.5418 0011005 53.5484 306.6513 15.37077750 97618
Phoenix
1 45258U 98067RB 21301.25077932 .00024877 00000-0 30142-3 0 9997
2 45258 51.6391 22.8377 0006032 25.3842 334.7447 15.60477004 95915
AztechSat-1
1 45261U 98067RE 21301.45298477 .00179059 00000-0 81351-3 0 9993
2 45261 51.6310 357.7766 0008955 28.6689 331.4805 15.82766493 96294
QARMAN
1 45263U 98067RG 21301.43790584 .00072094 00000-0 55321-3 0 9998
2 45263 51.6363 9.0513 0007145 29.3753 330.7645 15.71380496 96175
Quetzal 1
1 45598U 98067RL 21301.25068465 .00061262 00000-0 54802-3 0 9993
2 45598 51.6386 16.8591 0002359 22.3826 337.7273 15.67762590 85322
BY70-2
1 45857U 20042B 21301.81354174 .00001924 00000-0 27699-3 0 9999
2 45857 97.9755 16.1541 0012268 140.6021 219.6091 14.77453197 71233
UPMSat 2
1 46276U 20061E 21301.36694290 .00001700 00000-0 90073-4 0 9991
2 46276 97.4205 12.4057 0000334 142.8975 217.2281 15.16735192 63685
AmicalSat
1 46287U 20061R 21301.18601993 .00002012 00000-0 12490-3 0 9994
2 46287 97.4756 11.4826 0003054 30.4050 329.7357 15.10815771 63385
SALSAT
1 46495U 20068K 21301.56473368 .00001294 00000-0 98886-4 0 9992
2 46495 97.7008 238.3345 0016442 347.2425 12.8380 15.03626725 59332
